HST
1 20580U 90037B   24365.01316724  .00012748  00000-0  53269-3 0  9998
2 20580  28.4683 109.0859 0002561  39.6785 320.3996 15.22056173707112
ISS (ZARYA)
1 25544U 98067A   24365.39512187  .00026441  00000-0  46185-3 0  9990
2 25544  51.6381  63.2347 0006000  23.2492 336.8768 15.50465299488983
CXO
1 25867U 99040B   24366.19299662  .00000642  00000-0  00000-0 0  9997
2 25867  45.6674 138.8374 8661043 305.7101   0.2908  0.37802720 15319